Location: Augirein
(42.9320°N, 0.9181°E)
Time: 20:58:12
(UTC+00:00)

X-37B - Pass Details

Date: 26 September 2021
Orbit: 385 x 389 km, 45.0° (Epoch: 17 October)

Event Time Altitude Azimuth Distance (km) Brightness Sun altitude
Exits shadow 04:17:32 53° 287° (WNW) 479 0.7 -17.2°
Maximum altitude 04:18:07 71° 348° (NNW) 413 0.6 -17.1°
Drops below altitude 10° 04:21:17 10° 73° (ENE) 1,415 4.8 -16.6°
Sets 04:23:22 0° 76° (ENE) 2,272 6.3 -16.2°
